Location: Grand Lay
(47.3253°N, 0.9468°E)
Time: 06:43:30
(UTC+00:00)

Cosmos 1943 Rocket - Pass Details

Date: 18 January 2026
Orbit: 811 x 842 km, 71.0° (Epoch: 17 February)

Event Time Altitude Azimuth Distance (km) Brightness Sun altitude
Exits shadow 04:25:37 29° 153° (SSE) 1,465 3.6 -31.9°
Maximum altitude 04:27:43 40° 108° (ESE) 1,179 3.3 -31.6°
Drops below altitude 10° 04:32:49 10° 40° (NE) 2,407 5.0 -30.7°
Sets 04:35:22 0° 33° (NNE) 3,345 5.8 -30.3°
